STARLINK-3922 (52584 NORAD) Tracking and Keplerian Element Data

This shows tracking and keplerian element data for the satellite.

Feedback or suggestion? Click here.




ElementValue
Catalog52584
NameSTARLINK-3922
Epoch Orbit986
Epoch Day193.25001157
Epoch Year2022
RAAN0.8241
Inclination53.2175
Eccentricity0.0001316
Argument of Perigee55.1254
Mean Anonmoly43.4503
Mean Motion15.47046512
Decay Rate-0.01055678
L11 52584U 22051BA 22193.25001157 -.01055678 00000+0 -22634-1 0 9993
L22 52584 53.2175 0.8241 0001316 55.1254 43.4503 15.47046512 9864

Live tracking and technical data element details for STARLINK-3922 (NORAD 52584). STARLINK-3922 can be tracked NOW for your location showing map with azimuth and elevation plus other details from your city location.

Track the satellite on the map from your city or location and see movement details for azimuth, elevation, latitude, longitude, range, height, and movement on the map or in text.







IsCatalogInMostPopularTable: catalog: 52584, numindb: 8
Update: records affected: 1



GetName: 52584 STARLINK-3922

Hit Count: updated at: Sun, 14 Aug 2022 01:26:57 GMT